Fort Morgan, CO

7:15 PM MST on November 19, 2017 (GMT -0700)
Fort Morgan

Weather History for KFMM - August, 2014

Change the Weather History Date:

Thursday, August 28, 2014

  Actual Average (KAKO) Record (KAKO)
Temperature  
Mean Temperature 62 °F -  
Max Temperature 73 °F 85 °F 97 °F (2011)
Min Temperature 52 °F 55 °F 43 °F (1964)
Degree Days  
Heating Degree Days 2    
Growing Degree Days 12 (Base 50)    
Moisture  
Dew Point 52 °F    
Average Humidity 70    
Maximum Humidity 93    
Minimum Humidity 44    
Precipitation  
Precipitation 0.00 in - - ()
Sea Level Pressure  
Sea Level Pressure 30.10 in    
Wind  
Wind Speed 9 mph (NW)    
Max Wind Speed 21 mph    
Max Gust Speed 31 mph    
Visibility 10 miles    
Events      
Averages and records for this station are not official NWS values.
T = Trace of Precipitation, MM = Missing Value Source: NWS Daily Summary

Daily Weather History Graph

Daily Weather History Graph

Search for Another Location

Airport or City:

Trip Planner

Search our weather history database for the weather conditions in past years. The results will help you decide how hot, cold, wet, or windy it might be!

Date:

Astronomy

Aug. 28, 2014 Rise Set
Actual Time 6:18 AM MDT 7:33 PM MDT
Civil Twilight 5:50 AM MDT 8:01 PM MDT
Nautical Twilight 5:16 AM MDT 8:34 PM MDT
Astronomical Twilight 4:41 AM MDT 9:10 PM MDT
Moon 9:13 AM MDT (8/28) 8:57 PM MDT (8/28)
Length of Visible Light 14h 10m
Length of Day
13h 14m
Waxing Crescent, 9% of the Moon is Illuminated
Aug 28
Waxing Crescent
Sep 2
First Quarter
Sep 8
Full
Sep 15
Last Quarter
Sep 24
New

Hourly Weather History & Observations

Time (MDT) Temp. Dew Point Humidity Pressure Visibility Wind Dir Wind Speed Gust Speed Precip Events Conditions
12:15 AM 60.6 °F 53.8 °F 78% 30.10 in 10.0 mi NE 11.5 mph - N/A   Overcast
12:35 AM 60.1 °F 55.4 °F 85% 30.12 in 10.0 mi East 3.5 mph - N/A   Mostly Cloudy
12:55 AM 59.5 °F 55.9 °F 88% 30.11 in 10.0 mi WSW 6.9 mph - N/A   Scattered Clouds
1:15 AM 58.5 °F 55.6 °F 90% 30.11 in 10.0 mi West 8.1 mph - N/A   Clear
1:35 AM 58.5 °F 55.4 °F 90% 30.11 in 10.0 mi West 5.8 mph - N/A   Clear
1:55 AM 58.1 °F 55.6 °F 91% 30.11 in 10.0 mi WNW 6.9 mph - N/A   Clear
2:15 AM 58.1 °F 55.4 °F 91% 30.10 in 10.0 mi WNW 4.6 mph - N/A   Clear
2:35 AM 57.0 °F 54.7 °F 92% 30.09 in 10.0 mi WNW 5.8 mph - N/A   Clear
2:55 AM 56.8 °F 54.7 °F 92% 30.09 in 10.0 mi West 8.1 mph - N/A   Clear
3:15 AM 57.2 °F 54.9 °F 92% 30.10 in 10.0 mi WNW 5.8 mph - N/A   Clear
3:35 AM 56.3 °F 54.1 °F 92% 30.09 in 10.0 mi NW 4.6 mph - N/A   Clear
3:55 AM 55.0 °F 53.1 °F 93% 30.09 in 10.0 mi WNW 6.9 mph - N/A   Clear
4:15 AM 57.0 °F 50.4 °F 78% 30.08 in 10.0 mi NNW 12.7 mph - N/A   Clear
4:35 AM 55.2 °F 50.7 °F 85% 30.08 in 10.0 mi WNW 9.2 mph - N/A   Clear
4:55 AM 54.1 °F 50.2 °F 86% 30.08 in 10.0 mi WNW 9.2 mph - N/A   Clear
5:15 AM 53.6 °F 50.0 °F 88% 30.08 in 10.0 mi WNW 10.4 mph - N/A   Clear
5:35 AM 53.1 °F 49.3 °F 87% 30.09 in 10.0 mi WNW 9.2 mph - N/A   Clear
5:55 AM 53.6 °F 48.6 °F 83% 30.09 in 10.0 mi WNW 9.2 mph - N/A   Clear
6:15 AM 52.7 °F 48.6 °F 86% 30.09 in 10.0 mi West 6.9 mph - N/A   Clear
6:35 AM 53.1 °F 49.3 °F 87% 30.09 in 10.0 mi WNW 9.2 mph - N/A   Clear
6:55 AM 54.5 °F 50.4 °F 86% 30.10 in 10.0 mi West 5.8 mph - N/A   Clear
7:15 AM 55.4 °F 51.6 °F 87% 30.10 in 10.0 mi West 9.2 mph - N/A   Clear
7:35 AM 57.4 °F 51.8 °F 82% 30.11 in 10.0 mi West 9.2 mph - N/A   Clear
7:55 AM 57.9 °F 52.0 °F 81% 30.11 in 10.0 mi WNW 9.2 mph - N/A   Clear
8:15 AM 60.4 °F 52.3 °F 75% 30.11 in 10.0 mi WNW 11.5 mph - N/A   Clear
8:55 AM 63.9 °F 52.3 °F 66% 30.11 in 10.0 mi West 15.0 mph - N/A   Clear
9:15 AM 65.5 °F 52.5 °F 63% 30.12 in 10.0 mi West 13.8 mph 18.4 mph N/A   Clear
9:35 AM 67.1 °F 53.2 °F 61% 30.12 in 10.0 mi West 11.5 mph 19.6 mph N/A   Clear
9:55 AM 68.9 °F 53.2 °F 57% 30.11 in 10.0 mi West 10.4 mph 17.3 mph N/A   Clear
10:15 AM 70.0 °F 52.7 °F 54% 30.11 in 10.0 mi NW 6.9 mph - N/A   Clear
10:35 AM 71.4 °F 49.1 °F 45% 30.11 in 10.0 mi NW 10.4 mph - N/A   Clear
10:55 AM 72.5 °F 49.6 °F 44% 30.11 in 10.0 mi WNW 12.7 mph - N/A   Mostly Cloudy
11:15 AM 71.1 °F 50.9 °F 49% 30.11 in 10.0 mi NNW 11.5 mph - N/A   Scattered Clouds
11:35 AM 73.2 °F 50.5 °F 45% 30.10 in 10.0 mi NNW 12.7 mph 17.3 mph N/A   Clear
11:55 AM 72.0 °F 51.1 °F 48% 30.10 in 10.0 mi NW 11.5 mph 18.4 mph N/A   Mostly Cloudy
12:15 PM 65.3 °F 55.6 °F 71% 30.10 in 10.0 mi North 11.5 mph - N/A   Overcast
12:35 PM 68.2 °F 53.2 °F 59% 30.10 in 10.0 mi NNW 12.7 mph - N/A   Overcast
12:55 PM 70.2 °F 52.3 °F 53% 30.10 in 10.0 mi NW 15.0 mph 23.0 mph N/A   Overcast
1:15 PM 69.8 °F 52.9 °F 55% 30.10 in 10.0 mi NW 17.3 mph 25.3 mph N/A   Mostly Cloudy
1:35 PM 72.3 °F 52.5 °F 50% 30.10 in 10.0 mi NW 15.0 mph 25.3 mph N/A   Scattered Clouds
1:55 PM 73.6 °F 51.8 °F 46% 30.10 in 10.0 mi NW 18.4 mph 24.2 mph N/A   Scattered Clouds
2:15 PM 73.0 °F 51.4 °F 47% 30.10 in 10.0 mi NW 20.7 mph 26.5 mph N/A   Scattered Clouds
2:35 PM 71.4 °F 51.8 °F 50% 30.11 in 10.0 mi NNW 16.1 mph 31.1 mph N/A   Scattered Clouds
2:55 PM 70.5 °F 51.1 °F 50% 30.11 in 10.0 mi NNW 16.1 mph 23.0 mph N/A   Scattered Clouds
3:15 PM 69.8 °F 50.7 °F 51% 30.10 in 10.0 mi NW 19.6 mph 26.5 mph N/A   Scattered Clouds
3:35 PM 70.3 °F 51.8 °F 52% 30.10 in 10.0 mi NW 17.3 mph 21.9 mph N/A   Scattered Clouds
3:55 PM 69.1 °F 51.6 °F 54% 30.10 in 10.0 mi NNW 13.8 mph 20.7 mph N/A   Mostly Cloudy
4:15 PM 68.7 °F 51.8 °F 55% 30.10 in 10.0 mi NNW 13.8 mph 21.9 mph N/A   Mostly Cloudy
4:35 PM 68.9 °F 51.4 °F 54% 30.11 in 10.0 mi NNW 15.0 mph 19.6 mph N/A   Mostly Cloudy
4:55 PM 68.4 °F 51.3 °F 54% 30.10 in 10.0 mi NNW 12.7 mph 20.7 mph N/A   Scattered Clouds
5:15 PM 67.5 °F 50.4 °F 54% 30.10 in 10.0 mi North 11.5 mph - N/A   Mostly Cloudy
5:35 PM 67.3 °F 49.8 °F 53% 30.10 in 10.0 mi North 9.2 mph - N/A   Mostly Cloudy
5:55 PM 68.0 °F 50.2 °F 53% 30.10 in 10.0 mi North 8.1 mph - N/A   Scattered Clouds
6:15 PM 68.9 °F 48.9 °F 49% 30.09 in 10.0 mi North 5.8 mph - N/A   Scattered Clouds
6:35 PM 67.5 °F 48.2 °F 50% 30.08 in 10.0 mi North 3.5 mph - N/A   Scattered Clouds
6:55 PM 67.6 °F 48.7 °F 51% 30.08 in 10.0 mi North 3.5 mph - N/A   Mostly Cloudy
7:15 PM 65.7 °F 51.3 °F 60% 30.08 in 10.0 mi Calm Calm - N/A   Scattered Clouds
7:35 PM 64.9 °F 51.1 °F 61% 30.08 in 10.0 mi Calm Calm - N/A   Scattered Clouds
7:55 PM 63.0 °F 51.3 °F 66% 30.08 in 10.0 mi Calm Calm - N/A   Clear
8:15 PM 63.0 °F 51.4 °F 66% 30.09 in 10.0 mi Calm Calm - N/A   Clear
8:35 PM 60.4 °F 52.2 °F 74% 30.09 in 10.0 mi Calm Calm - N/A   Clear
8:55 PM 58.6 °F 51.6 °F 77% 30.10 in 10.0 mi WNW 5.8 mph - N/A   Clear
9:15 PM 58.8 °F 50.4 °F 73% 30.11 in 10.0 mi WNW 5.8 mph - N/A   Scattered Clouds
9:35 PM 57.9 °F 51.1 °F 78% 30.11 in 10.0 mi WNW 5.8 mph - N/A   Scattered Clouds
9:55 PM 57.2 °F 52.0 °F 83% 30.11 in 10.0 mi West 6.9 mph - N/A   Scattered Clouds
10:15 PM 56.3 °F 51.8 °F 85% 30.10 in 10.0 mi WNW 8.1 mph - N/A   Scattered Clouds
10:35 PM 56.1 °F 50.9 °F 83% 30.09 in 10.0 mi WNW 6.9 mph - N/A   Scattered Clouds
10:55 PM 55.8 °F 51.3 °F 85% 30.09 in 10.0 mi WNW 5.8 mph - N/A   Scattered Clouds
11:15 PM 55.2 °F 51.1 °F 86% 30.09 in 10.0 mi WNW 6.9 mph - N/A   Scattered Clouds
11:35 PM 54.5 °F 50.9 °F 88% 30.08 in 10.0 mi WNW 5.8 mph - N/A   Clear
11:55 PM 54.1 °F 50.9 °F 89% 30.07 in 10.0 mi WNW 6.9 mph - N/A   Clear